Notices

What's New in latest Release from April 7th, 2021:

- Updated Glossary, including Speed of Maximum Gust, and Total Hourly Precipitation

- Updated national and regional climate services offices contacts and prices information

- Addition of station inventory lists for 1981-2010, 1971-2000, and 1961-1990 Normals.

If you haven't already, please take our survey and provide feedback about our website: https://eccc.sondage-survey.ca/f/LanguageSelection.aspx?s=442ca660-fcf1-47c0-95a9-59707d6fd709

Hourly Data Report for August 03, 2015

IQALUIT CLIMATE
NUNAVUT

63°44'50.000" N
68°32'40.000" W
33.50 m
2402592
71321
XFB

Download Data

Hourly Data (August 2015)
Hourly Data Report for August 3, 2015
TIME
LST
Temp Definition
°C
Dew Point Definition
°C
Rel Hum Definition
%
Precip. Amount Definition
mm

Wind Dir Definition
10's deg

Wind Spd Definition
km/h
Visibility Definition
km
Stn Press Definition
kPa
Hmdx Definition


Wind Chill Definition


Weather Definition


00:00 4.0 3.6 97 0.0 17 8   101.66     LegendNANA
01:00 3.9 3.6 98 0.0 13 3   101.68     LegendNANA
02:00 4.4 4.0 98 0.0 23 3   101.72     LegendNANA
03:00 4.2 3.9 98 0.0 15 2   101.74     LegendNANA
04:00 4.7 4.4 98 0.0 4 3   101.75     LegendNANA
05:00 3.8 3.6 98 0.0 16 3   101.78     LegendNANA
06:00 4.1 3.9 99 0.0 0 1   101.80     LegendNANA
07:00 4.5 4.3 99 0.0 14 4   101.88     LegendNANA
08:00 4.2 4.0 99 0.0 15 4   101.91     LegendNANA
09:00 4.2 4.0 99 0.0 13 5   101.94     LegendNANA
10:00 4.8 4.5 98 0.0 16 6   101.95     LegendNANA
11:00 4.9 4.5 97 0.0 15 7   101.99     LegendNANA
12:00 4.8 4.3 96 0.0 13 7   102.01     LegendNANA
13:00 5.4 4.5 94 0.0 15 10   102.01     LegendNANA
14:00 6.4 5.5 94 0.0 15 10   102.02     LegendNANA
15:00 6.2 5.1 93 0.0 15 14   102.04     LegendNANA
16:00 6.3 5.1 92 0.0 16 13   102.05     LegendNANA
17:00 5.7 4.7 94 0.0 16 15   102.04     LegendNANA
18:00 5.8 3.8 87 0.0 17 13   102.06     LegendNANA
19:00 3.0 2.3 95 0.0 16 15   102.08     LegendNANA
20:00 1.7 1.5 99 0.0 12 11   102.12     LegendNANA
21:00 1.7 1.6 99 0.0 14 9   102.15     LegendNANA
22:00 1.8 1.7 100 0.0 16 7   102.15     LegendNANA
23:00 1.8 1.7 100 0.0 15 8   102.17     LegendNANA

Notes on Data Quality.

Legend

  • E = Estimated
  • M = Missing
  • NA = Not Available*
  • [empty] = Indicates an unobserved value
Date modified: